Home > Time Zones > World Clock > Weather > China > Wuhan > Past weeks

Flag for China Weather past 2 weeks in Wuhan, Hubei, China

Now
46 °F

Haze.


Feels Like: 42 °F
Forecast: 37 / 53 °F
Wind: 8 mph from East

Location: Wuhan Airport

Current Time: Dec 22, 2014 at 6:38:36 PM

Latest Report: Dec 22, 2014 at 6:00 PM


Visibility: 3 mi

Pressure: 30.27 "Hg

Humidity: 40%

Dew point: 23 °F

Location of WuhanLocation

Historic Weather in Wuhan — Graph

°F

Wuhan temperature yesterday

Maximum temperature yesterday: 48 °F (at 2:00 PM)
Minimum temperature yesterday: 34 °F (at 8:00 AM)
Average temperature yesterday: 40 °F

Past Weeks' High & Low Weather Summary

 TemperatureHumidityPressure
High55 °F (Dec 8, 3:00 PM)100% (Dec 20, 12:00 AM)30.74 "Hg (Dec 20, 12:00 AM)
Low28 °F (Dec 17, 1:00 AM)18% (Dec 16, 11:00 AM)30.21 "Hg (Dec 14, 4:00 PM)
Average42 °F56%30.44 "Hg
* Reported Dec 7 5:00 PM — Dec 22 5:00 PM, Wuhan, Weather by CustomWeather, © 2014

Note: Actual official high and low records may vary slightly from our data, if they occured in-between our weather recording intervals... More about our weather records

Advertising

Wuhan weather history for previous 24 hours

 ConditionsComfort  
Time TempWeatherWind HumidityBarometerVisibility
5:00 PM
Dec 22
48 °FHaze.8 mph37%30.27 "Hg3 mi
4:00 PM50 °FClear.6 mph28%30.27 "Hg4 mi
3:00 PM50 °FClear.3 mph30%30.30 "Hg4 mi
2:00 PM50 °FClear.6 mph30%30.33 "Hg4 mi
1:00 PM48 °FClear.3 mph34%30.36 "Hg4 mi
12:00 PM45 °FHaze.3 mph49%30.42 "Hg3 mi
11:00 AM43 °FHaze.3 mph57%30.45 "Hg2 mi
10:00 AM39 °FHaze.3 mph70%30.48 "Hg2 mi
9:00 AM36 °FFog.1 mph81%30.48 "Hg2 mi
8:00 AM30 °FIce fog.3 mph93%30.45 "Hg2 mi
7:00 AM32 °FClear.3 mph80%30.45 "Hg4 mi
6:00 AM30 °FClear.6 mph80%30.42 "Hg10 mi
5:00 AM32 °FClear.6 mph69%30.45 "Hg10 mi
4:00 AM30 °FClear.1 mph80%30.45 "Hg10 mi
3:00 AM30 °FClear.No wind80%30.48 "Hg10 mi
2:00 AM34 °FClear.3 mph60%30.48 "Hg10 mi
1:00 AM36 °FPassing clouds.3 mph56%30.48 "HgN/A
12:00 AM37 °FClear.3 mph52%30.51 "Hg10 mi
11:00 PM
Dec 21
34 °FClear.3 mph56%30.51 "Hg10 mi
10:00 PM39 °FPassing clouds.3 mph52%30.51 "HgN/A
9:00 PM36 °FClear.1 mph60%30.51 "Hg10 mi
8:00 PM37 °FClear.3 mph48%30.51 "Hg10 mi
7:00 PM37 °FClear.3 mph52%30.51 "Hg10 mi
6:00 PM37 °FClear.No wind56%30.51 "Hg10 mi
Weather by CustomWeather, © 2014

See weather overviewHow to use our weather pages